Location: Unspecified
(43.9972°N, 0.0000°E)
Time: 04:00:19
(UTC+00:00)

Transit 4A - All Passes

Search period start: 05 April 2026 00:00
Search period end: 15 April 2026 00:00
Orbit: 863 x 978 km, 66.8° (Epoch: 29 March)

Date Brightness Start Highest point End Pass type
(mag) Time Alt. Az. Time Alt. Az. Time Alt. Az.
5 Apr - 00:10:53 10° NNW 00:15:40 22° NE 00:20:28 10° E visible
5 Apr - 01:56:32 10° NNW 02:02:57 84° ENE 02:09:22 10° SSE visible
5 Apr - 03:44:27 10° WNW 03:48:31 18° WSW 03:52:35 10° SW visible
5 Apr - 15:21:57 10° SE 15:24:50 14° E 15:27:45 10° ENE daylight
5 Apr - 17:04:10 10° SSW 17:10:09 86° ESE 17:16:22 10° NNE daylight
5 Apr - 18:52:35 10° W 18:57:18 23° NW 19:02:08 10° NNE visible
6 Apr - 00:19:24 10° NNW 00:24:47 28° NE 00:30:11 10° E visible
6 Apr - 02:05:20 10° NW 02:11:42 71° WSW 02:18:02 10° SSE visible
6 Apr - 03:54:58 10° W 03:56:54 11° W 03:58:50 10° WSW visible
6 Apr - 15:28:54 10° SSE 15:33:14 21° ESE 15:37:40 10° ENE daylight
6 Apr - 17:12:56 10° SW 17:18:55 69° NW 17:25:08 10° NNE daylight
6 Apr - 19:02:25 10° WNW 19:06:28 18° NNW 19:10:36 10° N visible
6 Apr - 22:43:11 10° N 22:45:27 12° NNE 22:47:44 10° NE visible
7 Apr - 00:27:58 10° NNW 00:33:49 36° NE 00:39:40 10° ESE visible
7 Apr - 02:14:13 10° NW 02:20:21 50° WSW 02:26:27 10° S visible
7 Apr - 15:36:34 10° SSE 15:41:43 31° ESE 15:47:01 10° NE daylight
7 Apr - 17:21:58 10° SW 17:27:46 49° NW 17:33:48 10° NNE daylight
7 Apr - 19:12:30 10° WNW 19:15:44 14° NNW 19:19:00 10° N visible
7 Apr - 22:51:25 10° N 22:54:48 15° NNE 22:58:11 10° ENE visible
8 Apr - 00:36:36 10° NNW 00:42:46 49° NE 00:48:56 10° SE visible
8 Apr - 02:23:15 10° NW 02:28:56 35° WSW 02:34:36 10° S visible
8 Apr - 15:44:37 10° S 15:50:15 45° ESE 15:56:06 10° NE daylight
8 Apr - 17:31:11 10° WSW 17:36:42 36° NW 17:42:26 10° NNE daylight
8 Apr - 19:22:54 10° NW 19:25:03 12° NNW 19:27:13 10° N visible
8 Apr - 22:59:48 10° N 23:04:03 18° NNE 23:08:18 10° ENE visible
9 Apr - 00:45:16 10° NNW 00:51:38 67° NE 00:57:59 10° SE visible
9 Apr - 02:32:31 10° NW 02:37:27 24° WSW 02:42:22 10° SSW visible
9 Apr - 15:52:58 10° SSW 15:58:53 66° ESE 16:05:02 10° NE daylight
9 Apr - 17:40:36 10° W 17:45:44 28° NW 17:51:01 10° NNE daylight
9 Apr - 23:08:16 10° NNW 23:13:13 23° NE 23:18:11 10° E visible
10 Apr - 00:54:00 10° NNW 01:00:25 90° WSW 01:06:50 10° SSE visible
10 Apr - 02:42:10 10° WNW 02:45:53 16° WSW 02:49:35 10° SW visible
10 Apr - 14:18:49 10° SE 14:22:11 16° ESE 14:25:36 10° ENE daylight
10 Apr - 16:01:34 10° SSW 16:07:35 88° WNW 16:13:50 10° NNE daylight
10 Apr - 17:50:15 10° W 17:54:51 22° NW 17:59:32 10° NNE daylight
10 Apr - 21:32:39 10° N 21:33:41 10° NNE 21:34:42 10° NNE visible
10 Apr - 23:16:48 10° NNW 23:22:19 30° NE 23:27:50 10° ESE visible
11 Apr - 01:02:49 10° NW 01:09:08 65° WSW 01:15:26 10° SSE visible
11 Apr - 02:53:54 10° W 02:54:15 10° W 02:54:37 10° WSW visible
11 Apr - 14:26:00 10° SSE 14:30:36 23° ESE 14:35:18 10° NE daylight
11 Apr - 16:10:25 10° SW 16:16:23 63° NW 16:22:34 10° NNE daylight
11 Apr - 18:00:08 10° WNW 18:04:02 17° NNW 18:08:00 10° N daylight
11 Apr - 21:40:28 10° N 21:43:03 12° NNE 21:45:39 10° NE visible
11 Apr - 23:25:23 10° NNW 23:31:20 39° NE 23:37:16 10° ESE visible
12 Apr - 01:11:44 10° NW 01:17:46 45° WSW 01:23:47 10° S visible
12 Apr - 14:33:47 10° S 14:39:05 34° ESE 14:44:35 10° NE daylight
12 Apr - 16:19:28 10° WSW 16:25:15 46° NW 16:31:15 10° NNE daylight
12 Apr - 18:10:17 10° NW 18:13:18 14° NNW 18:16:22 10° N daylight
12 Apr - 21:48:45 10° N 21:52:22 15° NNE 21:56:00 10° ENE visible
12 Apr - 23:34:01 10° NNW 23:40:15 52° NE 23:46:29 10° SE visible
13 Apr - 01:20:48 10° NW 01:26:20 32° WSW 01:31:51 10° S visible
13 Apr - 14:41:55 10° S 14:47:40 50° ESE 14:53:37 10° NE daylight
13 Apr - 16:28:45 10° WSW 16:34:12 34° NW 16:39:52 10° NNE daylight
13 Apr - 18:20:47 10° NW 18:22:39 11° NNW 18:24:31 10° N daylight
13 Apr - 21:57:10 10° N 22:01:37 19° NE 22:06:04 10° E visible
13 Apr - 23:42:41 10° NNW 23:49:06 72° NE 23:55:29 10° SE visible
14 Apr - 01:30:08 10° WNW 01:34:50 22° WSW 01:39:31 10° SSW visible
14 Apr - 13:09:43 10° ESE 13:11:10 11° E 13:12:38 10° E daylight
14 Apr - 14:50:20 10° SSW 14:56:19 72° ESE 15:02:30 10° NE daylight
14 Apr - 16:38:13 10° W 16:43:15 26° NW 16:48:26 10° NNE daylight
14 Apr - 22:05:39 10° NNW 22:10:46 24° NE 22:15:53 10° E visible
